Time,TemperatureF,DewpointF,PressureIn,WindDirection,WindDirectionDegrees,WindSpeedMPH,WindSpeedGustMPH,Humidity,HourlyPrecipIn,Conditions,Clouds,dailyrainin,SoftwareType,DateUTC
2013-03-18 00:04:00,19.0,1.2,30.02,West,270,2.0,13.0,45,0.00,,,0.00,Weather View 32 v70,2013-03-18 04:04:00,
2013-03-18 00:09:00,19.0,1.2,30.02,North,360,0.0,13.0,45,0.00,,,0.00,Weather View 32 v70,2013-03-18 04:09:00,
2013-03-18 00:14:00,19.0,0.7,30.03,South,180,0.0,13.0,44,0.00,,,0.00,Weather View 32 v70,2013-03-18 04:14:00,
2013-03-18 00:19:00,18.0,-0.2,30.03,WSW,247,0.0,13.0,44,0.00,,,0.00,Weather View 32 v70,2013-03-18 04:19:00,
2013-03-18 00:24:00,18.0,-0.2,30.03,SE,135,0.0,13.0,44,0.00,,,0.00,Weather View 32 v70,2013-03-18 04:24:00,
2013-03-18 00:29:00,18.0,0.7,30.03,SE,135,0.0,13.0,46,0.00,,,0.00,Weather View 32 v70,2013-03-18 04:29:00,
2013-03-18 00:34:00,18.0,0.2,30.04,NW,315,0.0,13.0,45,0.00,,,0.00,Weather View 32 v70,2013-03-18 04:34:00,
2013-03-18 00:39:00,18.0,0.2,30.04,West,270,3.0,13.0,45,0.00,,,0.00,Weather View 32 v70,2013-03-18 04:39:00,
2013-03-18 00:44:00,18.0,0.7,30.04,West,270,0.0,13.0,46,0.00,,,0.00,Weather View 32 v70,2013-03-18 04:44:00,
2013-03-18 00:49:00,17.0,-0.2,30.04,South,180,0.0,7.0,46,0.00,,,0.00,Weather View 32 v70,2013-03-18 04:49:00,
2013-03-18 00:54:00,17.0,0.2,30.06,SW,225,0.0,7.0,47,0.00,,,0.00,Weather View 32 v70,2013-03-18 04:54:00,
2013-03-18 00:59:00,16.0,-0.7,30.06,SW,225,0.0,7.0,47,0.00,,,0.00,Weather View 32 v70,2013-03-18 04:59:00,
2013-03-18 01:04:00,16.0,-0.7,30.06,SW,225,0.0,7.0,47,0.00,,,0.00,Weather View 32 v70,2013-03-18 05:04:00,
2013-03-18 01:09:00,16.0,-0.2,30.06,SW,225,0.0,7.0,48,0.00,,,0.00,Weather View 32 v70,2013-03-18 05:09:00,
2013-03-18 01:14:00,16.0,0.2,30.07,SW,225,0.0,7.0,49,0.00,,,0.00,Weather View 32 v70,2013-03-18 05:14:00,
2013-03-18 01:19:00,16.0,-0.2,30.07,East,90,0.0,7.0,48,0.00,,,0.00,Weather View 32 v70,2013-03-18 05:19:00,
2013-03-18 01:24:00,16.0,0.2,30.07,East,90,0.0,7.0,49,0.00,,,0.00,Weather View 32 v70,2013-03-18 05:24:00,
2013-03-18 01:29:00,15.0,-0.7,30.07,East,90,0.0,7.0,49,0.00,,,0.00,Weather View 32 v70,2013-03-18 05:29:00,
2013-03-18 01:34:00,15.0,0.5,30.06,East,90,0.0,7.0,52,0.00,,,0.00,Weather View 32 v70,2013-03-18 05:34:00,
2013-03-18 01:39:00,15.0,0.1,30.06,East,90,0.0,7.0,51,0.00,,,0.00,Weather View 32 v70,2013-03-18 05:39:00,
2013-03-18 01:44:00,15.0,0.1,30.06,East,90,0.0,7.0,51,0.00,,,0.00,Weather View 32 v70,2013-03-18 05:44:00,
2013-03-18 01:49:00,15.0,0.1,30.07,East,90,0.0,4.0,51,0.00,,,0.00,Weather View 32 v70,2013-03-18 05:49:00,
2013-03-18 01:54:00,14.0,-0.4,30.08,East,90,0.0,4.0,52,0.00,,,0.00,Weather View 32 v70,2013-03-18 05:54:00,
2013-03-18 01:59:00,14.0,0.4,30.08,East,90,0.0,4.0,54,0.00,,,0.00,Weather View 32 v70,2013-03-18 05:59:00,
2013-03-18 02:04:00,14.0,0.4,30.08,East,90,0.0,3.0,54,0.00,,,0.00,Weather View 32 v70,2013-03-18 06:04:00,
2013-03-18 02:09:00,13.0,-0.5,30.08,East,90,0.0,3.0,54,0.00,,,0.00,Weather View 32 v70,2013-03-18 06:09:00,
2013-03-18 02:14:00,14.0,0.4,30.09,West,270,1.0,6.0,54,0.00,,,0.00,Weather View 32 v70,2013-03-18 06:14:00,
2013-03-18 02:19:00,15.0,0.5,30.09,NW,315,1.0,6.0,52,0.00,,,0.00,Weather View 32 v70,2013-03-18 06:19:00,
2013-03-18 02:24:00,15.0,1.0,30.09,NW,315,1.0,6.0,53,0.00,,,0.00,Weather View 32 v70,2013-03-18 06:24:00,
2013-03-18 02:29:00,15.0,0.5,30.09,NW,315,0.0,6.0,52,0.00,,,0.00,Weather View 32 v70,2013-03-18 06:29:00,
2013-03-18 02:34:00,15.0,0.5,30.08,NW,315,0.0,6.0,52,0.00,,,0.00,Weather View 32 v70,2013-03-18 06:34:00,
2013-03-18 02:44:00,14.0,-0.4,30.08,NW,315,0.0,6.0,52,0.00,,,0.00,Weather View 32 v70,2013-03-18 06:44:00,
2013-03-18 02:49:00,15.0,1.4,30.10,NW,315,0.0,6.0,54,0.00,,,0.00,Weather View 32 v70,2013-03-18 06:49:00,
2013-03-18 02:54:00,14.0,0.4,30.09,NW,315,0.0,6.0,54,0.00,,,0.00,Weather View 32 v70,2013-03-18 06:54:00,
2013-03-18 02:59:00,14.0,0.8,30.09,NW,315,0.0,6.0,55,0.00,,,0.00,Weather View 32 v70,2013-03-18 06:59:00,
2013-03-18 03:04:00,14.0,0.4,30.09,NW,315,0.0,6.0,54,0.00,,,0.00,Weather View 32 v70,2013-03-18 07:04:00,
2013-03-18 03:14:00,14.0,0.0,30.10,SW,225,0.0,4.0,53,0.00,,,0.00,Weather View 32 v70,2013-03-18 07:14:00,
2013-03-18 03:19:00,13.0,-0.5,30.10,SW,225,0.0,4.0,54,0.00,,,0.00,Weather View 32 v70,2013-03-18 07:19:00,
2013-03-18 03:30:00,14.0,-0.8,30.10,West,270,0.0,5.0,51,0.00,,,0.00,Weather View 32 v70,2013-03-18 07:30:00,
2013-03-18 03:39:00,14.0,-0.4,30.10,West,270,0.0,5.0,52,0.00,,,0.00,Weather View 32 v70,2013-03-18 07:39:00,
2013-03-18 03:45:00,14.0,0.4,30.10,West,270,0.0,5.0,54,0.00,,,0.00,Weather View 32 v70,2013-03-18 07:45:00,
2013-03-18 03:54:00,13.0,-0.9,30.10,West,270,0.0,5.0,53,0.00,,,0.00,Weather View 32 v70,2013-03-18 07:54:00,
2013-03-18 03:59:00,13.0,-0.5,30.10,West,270,0.0,5.0,54,0.00,,,0.00,Weather View 32 v70,2013-03-18 07:59:00,
2013-03-18 04:04:00,12.0,-1.1,30.10,West,270,0.0,5.0,55,0.00,,,0.00,Weather View 32 v70,2013-03-18 08:04:00,
2013-03-18 04:09:00,13.0,0.6,30.10,West,270,0.0,5.0,57,0.00,,,0.00,Weather View 32 v70,2013-03-18 08:09:00,
2013-03-18 04:14:00,13.0,0.6,30.10,West,270,0.0,5.0,57,0.00,,,0.00,Weather View 32 v70,2013-03-18 08:14:00,
2013-03-18 04:19:00,13.0,0.3,30.10,West,270,0.0,5.0,56,0.00,,,0.00,Weather View 32 v70,2013-03-18 08:19:00,
2013-03-18 04:24:00,13.0,1.4,30.10,West,270,0.0,5.0,59,0.00,,,0.00,Weather View 32 v70,2013-03-18 08:24:00,
2013-03-18 04:34:00,12.0,0.1,30.10,West,270,0.0,3.0,58,0.00,,,0.00,Weather View 32 v70,2013-03-18 08:34:00,
2013-03-18 04:39:00,12.0,1.1,30.10,West,270,1.0,3.0,61,0.00,,,0.00,Weather View 32 v70,2013-03-18 08:39:00,
2013-03-18 04:44:00,13.0,1.4,30.11,West,270,2.0,3.0,59,0.00,,,0.00,Weather View 32 v70,2013-03-18 08:44:00,
2013-03-18 04:49:00,13.0,1.4,30.11,West,270,2.0,4.0,59,0.00,,,0.00,Weather View 32 v70,2013-03-18 08:49:00,
2013-03-18 04:54:00,13.0,1.7,30.11,West,270,0.0,4.0,60,0.00,,,0.00,Weather View 32 v70,2013-03-18 08:54:00,
2013-03-18 04:59:00,12.0,1.5,30.11,West,270,1.0,4.0,62,0.00,,,0.00,Weather View 32 v70,2013-03-18 08:59:00,
2013-03-18 05:04:00,13.0,2.1,30.11,West,270,1.0,4.0,61,0.00,,,0.00,Weather View 32 v70,2013-03-18 09:04:00,
2013-03-18 05:09:00,12.0,1.1,30.11,West,270,2.0,4.0,61,0.00,,,0.00,Weather View 32 v70,2013-03-18 09:09:00,
2013-03-18 05:14:00,12.0,1.5,30.12,West,270,0.0,4.0,62,0.00,,,0.00,Weather View 32 v70,2013-03-18 09:14:00,
2013-03-18 05:19:00,12.0,1.1,30.12,West,270,1.0,4.0,61,0.00,,,0.00,Weather View 32 v70,2013-03-18 09:19:00,
2013-03-18 05:24:00,12.0,1.1,30.12,West,270,0.0,4.0,61,0.00,,,0.00,Weather View 32 v70,2013-03-18 09:24:00,
2013-03-18 05:29:00,12.0,1.1,30.12,West,270,2.0,4.0,61,0.00,,,0.00,Weather View 32 v70,2013-03-18 09:29:00,
2013-03-18 05:34:00,12.0,1.1,30.12,West,270,0.0,4.0,61,0.00,,,0.00,Weather View 32 v70,2013-03-18 09:34:00,
2013-03-18 05:39:00,12.0,1.5,30.12,West,270,0.0,4.0,62,0.00,,,0.00,Weather View 32 v70,2013-03-18 09:39:00,
2013-03-18 05:44:00,12.0,1.8,30.13,West,270,1.0,4.0,63,0.00,,,0.00,Weather View 32 v70,2013-03-18 09:44:00,
2013-03-18 05:54:00,12.0,1.5,30.13,West,270,0.0,4.0,62,0.00,,,0.00,Weather View 32 v70,2013-03-18 09:54:00,
2013-03-18 05:59:00,12.0,1.5,30.13,West,270,0.0,4.0,62,0.00,,,0.00,Weather View 32 v70,2013-03-18 09:59:00,
2013-03-18 06:04:00,12.0,1.5,30.14,West,270,0.0,4.0,62,0.00,,,0.00,Weather View 32 v70,2013-03-18 10:04:00,
2013-03-18 06:09:00,12.0,1.5,30.14,West,270,0.0,4.0,62,0.00,,,0.00,Weather View 32 v70,2013-03-18 10:09:00,
2013-03-18 06:14:00,12.0,1.8,30.14,West,270,1.0,4.0,63,0.00,,,0.00,Weather View 32 v70,2013-03-18 10:14:00,
2013-03-18 06:19:00,12.0,1.8,30.14,West,270,1.0,4.0,63,0.00,,,0.00,Weather View 32 v70,2013-03-18 10:19:00,
2013-03-18 06:24:00,12.0,1.5,30.15,West,270,0.0,4.0,62,0.00,,,0.00,Weather View 32 v70,2013-03-18 10:24:00,
2013-03-18 06:29:00,11.0,1.2,30.15,West,270,0.0,4.0,64,0.00,,,0.00,Weather View 32 v70,2013-03-18 10:29:00,
2013-03-18 06:34:00,11.0,0.9,30.15,West,270,0.0,4.0,63,0.00,,,0.00,Weather View 32 v70,2013-03-18 10:34:00,
2013-03-18 06:39:00,11.0,0.9,30.15,West,270,1.0,4.0,63,0.00,,,0.00,Weather View 32 v70,2013-03-18 10:39:00,
2013-03-18 06:44:00,11.0,0.9,30.16,West,270,0.0,4.0,63,0.00,,,0.00,Weather View 32 v70,2013-03-18 10:44:00,
2013-03-18 06:49:00,11.0,0.9,30.16,West,270,0.0,4.0,63,0.00,,,0.00,Weather View 32 v70,2013-03-18 10:49:00,
2013-03-18 06:54:00,11.0,1.2,30.16,West,270,0.0,3.0,64,0.00,,,0.00,Weather View 32 v70,2013-03-18 10:54:00,
2013-03-18 06:59:00,11.0,1.9,30.16,West,270,0.0,3.0,66,0.00,,,0.00,Weather View 32 v70,2013-03-18 10:59:00,
2013-03-18 07:04:00,11.0,0.9,30.16,West,270,0.0,3.0,63,0.00,,,0.00,Weather View 32 v70,2013-03-18 11:04:00,
2013-03-18 07:09:00,11.0,1.2,30.16,West,270,2.0,3.0,64,0.00,,,0.00,Weather View 32 v70,2013-03-18 11:09:00,
2013-03-18 07:14:00,11.0,1.5,30.16,West,270,0.0,3.0,65,0.00,,,0.00,Weather View 32 v70,2013-03-18 11:14:00,
2013-03-18 07:19:00,11.0,1.2,30.16,West,270,0.0,3.0,64,0.00,,,0.00,Weather View 32 v70,2013-03-18 11:19:00,
2013-03-18 07:24:00,12.0,2.2,30.16,West,270,1.0,3.0,64,0.00,,,0.00,Weather View 32 v70,2013-03-18 11:24:00,
2013-03-18 07:29:00,12.0,1.8,30.16,West,270,0.0,3.0,63,0.00,,,0.00,Weather View 32 v70,2013-03-18 11:29:00,
2013-03-18 07:34:00,13.0,2.1,30.16,West,270,1.0,3.0,61,0.00,,,0.00,Weather View 32 v70,2013-03-18 11:34:00,
2013-03-18 07:39:00,13.0,1.7,30.16,West,270,1.0,3.0,60,0.00,,,0.00,Weather View 32 v70,2013-03-18 11:39:00,
2013-03-18 07:44:00,14.0,2.7,30.16,West,270,1.0,3.0,60,0.00,,,0.00,Weather View 32 v70,2013-03-18 11:44:00,
2013-03-18 07:49:00,14.0,2.7,30.16,West,270,1.0,3.0,60,0.00,,,0.00,Weather View 32 v70,2013-03-18 11:49:00,
2013-03-18 07:54:00,15.0,2.5,30.16,West,270,3.0,4.0,57,0.00,,,0.00,Weather View 32 v70,2013-03-18 11:54:00,
2013-03-18 07:59:00,15.0,2.1,30.16,West,270,1.0,5.0,56,0.00,,,0.00,Weather View 32 v70,2013-03-18 11:59:00,
2013-03-18 08:09:00,16.0,3.5,30.16,WNW,292,2.0,6.0,57,0.00,,,0.00,Weather View 32 v70,2013-03-18 12:09:00,
2013-03-18 08:14:00,16.0,3.1,30.15,West,270,3.0,6.0,56,0.00,,,0.00,Weather View 32 v70,2013-03-18 12:14:00,
2013-03-18 08:19:00,17.0,2.4,30.15,West,270,1.0,6.0,52,0.00,,,0.00,Weather View 32 v70,2013-03-18 12:19:00,
2013-03-18 08:24:00,18.0,2.9,30.14,West,270,4.0,6.0,51,0.00,,,0.00,Weather View 32 v70,2013-03-18 12:24:00,
2013-03-18 08:29:00,18.0,3.3,30.14,WNW,292,2.0,7.0,52,0.00,,,0.00,Weather View 32 v70,2013-03-18 12:29:00,
2013-03-18 08:34:00,18.0,2.9,30.15,West,270,0.0,7.0,51,0.00,,,0.00,Weather View 32 v70,2013-03-18 12:34:00,
2013-03-18 08:39:00,19.0,3.4,30.15,West,270,3.0,7.0,50,0.00,,,0.00,Weather View 32 v70,2013-03-18 12:39:00,
2013-03-18 08:44:00,20.0,3.9,30.16,West,270,1.0,7.0,49,0.00,,,0.00,Weather View 32 v70,2013-03-18 12:44:00,
2013-03-18 08:49:00,20.0,3.5,30.16,NW,315,0.0,7.0,48,0.00,,,0.00,Weather View 32 v70,2013-03-18 12:49:00,
2013-03-18 08:54:00,21.0,4.4,30.15,South,180,0.0,7.0,48,0.00,,,0.00,Weather View 32 v70,2013-03-18 12:54:00,
2013-03-18 08:59:00,22.0,4.4,30.15,West,270,3.0,7.0,46,0.00,,,0.00,Weather View 32 v70,2013-03-18 12:59:00,
2013-03-18 09:04:00,21.0,3.0,30.14,West,270,4.0,7.0,45,0.00,,,0.00,Weather View 32 v70,2013-03-18 13:04:00,
2013-03-18 09:09:00,22.0,2.4,30.14,NE,45,0.0,7.0,42,0.00,,,0.00,Weather View 32 v70,2013-03-18 13:09:00,
2013-03-18 09:14:00,23.0,2.3,30.14,West,270,3.0,7.0,40,0.00,,,0.00,Weather View 32 v70,2013-03-18 13:14:00,
2013-03-18 09:19:00,23.0,2.8,30.14,West,270,0.0,7.0,41,0.00,,,0.00,Weather View 32 v70,2013-03-18 13:19:00,
2013-03-18 09:24:00,23.0,1.7,30.14,NW,315,0.0,7.0,39,0.00,,,0.00,Weather View 32 v70,2013-03-18 13:24:00,
2013-03-18 09:29:00,24.0,2.6,30.14,South,180,0.0,7.0,39,0.00,,,0.00,Weather View 32 v70,2013-03-18 13:29:00,
2013-03-18 09:34:00,25.0,1.8,30.14,NE,45,0.0,7.0,36,0.00,,,0.00,Weather View 32 v70,2013-03-18 13:34:00,
2013-03-18 09:39:00,25.0,1.8,30.14,SE,135,1.0,7.0,36,0.00,,,0.00,Weather View 32 v70,2013-03-18 13:39:00,
2013-03-18 09:44:00,24.0,1.5,30.14,West,270,2.0,7.0,37,0.00,,,0.00,Weather View 32 v70,2013-03-18 13:44:00,
2013-03-18 09:49:00,24.0,2.1,30.14,West,270,0.0,7.0,38,0.00,,,0.00,Weather View 32 v70,2013-03-18 13:49:00,
2013-03-18 09:54:00,25.0,0.6,30.14,East,90,0.0,7.0,34,0.00,,,0.00,Weather View 32 v70,2013-03-18 13:54:00,
2013-03-18 09:59:00,25.0,3.0,30.14,WNW,292,0.0,7.0,38,0.00,,,0.00,Weather View 32 v70,2013-03-18 13:59:00,
2013-03-18 10:04:00,24.0,1.5,30.14,ESE,112,1.0,7.0,37,0.00,,,0.00,Weather View 32 v70,2013-03-18 14:04:00,
2013-03-18 10:09:00,24.0,2.1,30.14,West,270,3.0,7.0,38,0.00,,,0.00,Weather View 32 v70,2013-03-18 14:09:00,
2013-03-18 10:14:00,25.0,3.0,30.13,WNW,292,2.0,7.0,38,0.00,,,0.00,Weather View 32 v70,2013-03-18 14:14:00,
2013-03-18 10:19:00,25.0,3.0,30.13,West,270,0.0,7.0,38,0.00,,,0.00,Weather View 32 v70,2013-03-18 14:19:00,
2013-03-18 10:24:00,25.0,3.0,30.12,West,270,3.0,7.0,38,0.00,,,0.00,Weather View 32 v70,2013-03-18 14:24:00,
2013-03-18 10:29:00,25.0,3.0,30.12,West,270,2.0,7.0,38,0.00,,,0.00,Weather View 32 v70,2013-03-18 14:29:00,
2013-03-18 10:34:00,26.0,4.4,30.12,West,270,2.0,7.0,39,0.00,,,0.00,Weather View 32 v70,2013-03-18 14:34:00,
2013-03-18 10:39:00,27.0,5.3,30.12,West,270,5.0,7.0,39,0.00,,,0.00,Weather View 32 v70,2013-03-18 14:39:00,
2013-03-18 10:44:00,26.0,3.9,30.13,West,270,4.0,9.0,38,0.00,,,0.00,Weather View 32 v70,2013-03-18 14:44:00,
2013-03-18 10:49:00,26.0,3.9,30.13,ESE,112,6.0,9.0,38,0.00,,,0.00,Weather View 32 v70,2013-03-18 14:49:00,
2013-03-18 10:54:00,27.0,4.8,30.12,WSW,247,4.0,9.0,38,0.00,,,0.00,Weather View 32 v70,2013-03-18 14:54:00,
2013-03-18 10:59:00,27.0,5.9,30.12,NW,315,4.0,9.0,40,0.00,,,0.00,Weather View 32 v70,2013-03-18 14:59:00,
2013-03-18 11:04:00,27.0,4.2,30.12,SE,135,1.0,9.0,37,0.00,,,0.00,Weather View 32 v70,2013-03-18 15:04:00,
2013-03-18 11:09:00,27.0,4.2,30.12,West,270,4.0,9.0,37,0.00,,,0.00,Weather View 32 v70,2013-03-18 15:09:00,
2013-03-18 11:14:00,27.0,4.8,30.12,West,270,4.0,9.0,38,0.00,,,0.00,Weather View 32 v70,2013-03-18 15:14:00,
2013-03-18 11:19:00,27.0,4.2,30.12,West,270,1.0,9.0,37,0.00,,,0.00,Weather View 32 v70,2013-03-18 15:19:00,
2013-03-18 11:24:00,28.0,5.1,30.10,South,180,2.0,9.0,37,0.00,,,0.00,Weather View 32 v70,2013-03-18 15:24:00,
2013-03-18 11:29:00,28.0,5.7,30.10,West,270,3.0,9.0,38,0.00,,,0.00,Weather View 32 v70,2013-03-18 15:29:00,
2013-03-18 11:34:00,29.0,5.4,30.10,South,180,0.0,9.0,36,0.00,,,0.00,Weather View 32 v70,2013-03-18 15:34:00,
2013-03-18 11:39:00,29.0,5.4,30.10,West,270,3.0,10.0,36,0.00,,,0.00,Weather View 32 v70,2013-03-18 15:39:00,
2013-03-18 11:44:00,30.0,5.6,30.09,WNW,292,1.0,10.0,35,0.00,,,0.00,Weather View 32 v70,2013-03-18 15:44:00,
2013-03-18 11:49:00,30.0,5.0,30.09,West,270,3.0,10.0,34,0.00,,,0.00,Weather View 32 v70,2013-03-18 15:49:00,
2013-03-18 11:54:00,30.0,4.4,30.08,SE,135,1.0,10.0,33,0.00,,,0.00,Weather View 32 v70,2013-03-18 15:54:00,
2013-03-18 11:59:00,30.0,4.4,30.08,West,270,6.0,10.0,33,0.00,,,0.00,Weather View 32 v70,2013-03-18 15:59:00,
2013-03-18 12:04:00,31.0,5.2,30.09,NW,315,2.0,10.0,33,0.00,,,0.00,Weather View 32 v70,2013-03-18 16:04:00,
2013-03-18 12:09:00,31.0,4.6,30.09,WNW,292,5.0,10.0,32,0.00,,,0.00,Weather View 32 v70,2013-03-18 16:09:00,
2013-03-18 12:14:00,31.0,5.9,30.08,NW,315,2.0,10.0,34,0.00,,,0.00,Weather View 32 v70,2013-03-18 16:14:00,
2013-03-18 12:19:00,32.0,6.1,30.08,West,270,7.0,10.0,33,0.00,,,0.00,Weather View 32 v70,2013-03-18 16:19:00,
2013-03-18 12:24:00,32.0,5.4,30.07,NW,315,6.0,10.0,32,0.00,,,0.00,Weather View 32 v70,2013-03-18 16:24:00,
2013-03-18 12:29:00,32.0,4.8,30.07,WNW,292,0.0,10.0,31,0.00,,,0.00,Weather View 32 v70,2013-03-18 16:29:00,
2013-03-18 12:34:00,32.0,4.8,30.07,West,270,3.0,10.0,31,0.00,,,0.00,Weather View 32 v70,2013-03-18 16:34:00,
2013-03-18 12:39:00,32.0,4.8,30.07,West,270,5.0,10.0,31,0.00,,,0.00,Weather View 32 v70,2013-03-18 16:39:00,
2013-03-18 12:44:00,33.0,7.0,30.06,NW,315,5.0,10.0,33,0.00,,,0.00,Weather View 32 v70,2013-03-18 16:44:00,
2013-03-18 12:49:00,34.0,6.5,30.06,NW,315,0.0,10.0,31,0.00,,,0.00,Weather View 32 v70,2013-03-18 16:49:00,
2013-03-18 12:54:00,34.0,5.1,30.06,West,270,3.0,9.0,29,0.00,,,0.00,Weather View 32 v70,2013-03-18 16:54:00,
2013-03-18 12:59:00,34.0,6.5,30.06,SE,135,3.0,9.0,31,0.00,,,0.00,Weather View 32 v70,2013-03-18 16:59:00,
2013-03-18 13:04:00,33.0,3.4,30.06,South,180,2.0,8.0,28,0.00,,,0.00,Weather View 32 v70,2013-03-18 17:04:00,
2013-03-18 13:09:00,33.0,4.2,30.06,SE,135,3.0,8.0,29,0.00,,,0.00,Weather View 32 v70,2013-03-18 17:09:00,
2013-03-18 13:14:00,34.0,5.1,30.06,North,360,2.0,8.0,29,0.00,,,0.00,Weather View 32 v70,2013-03-18 17:14:00,
2013-03-18 13:19:00,33.0,4.2,30.06,West,270,2.0,8.0,29,0.00,,,0.00,Weather View 32 v70,2013-03-18 17:19:00,
2013-03-18 13:24:00,33.0,4.9,30.06,SW,225,3.0,8.0,30,0.00,,,0.00,Weather View 32 v70,2013-03-18 17:24:00,
2013-03-18 13:29:00,34.0,4.3,30.06,SE,135,6.0,8.0,28,0.00,,,0.00,Weather View 32 v70,2013-03-18 17:29:00,
2013-03-18 13:34:00,34.0,4.3,30.04,ENE,67,4.0,9.0,28,0.00,,,0.00,Weather View 32 v70,2013-03-18 17:34:00,
2013-03-18 13:39:00,35.0,5.2,30.04,South,180,2.0,9.0,28,0.00,,,0.00,Weather View 32 v70,2013-03-18 17:39:00,
2013-03-18 13:44:00,35.0,4.4,30.04,South,180,3.0,9.0,27,0.00,,,0.00,Weather View 32 v70,2013-03-18 17:44:00,
2013-03-18 13:50:00,35.0,5.2,30.04,SW,225,3.0,9.0,28,0.00,,,0.00,Weather View 32 v70,2013-03-18 17:50:00,
2013-03-18 13:59:00,35.0,5.2,30.03,SE,135,6.0,9.0,28,0.00,,,0.00,Weather View 32 v70,2013-03-18 17:59:00,
2013-03-18 14:04:00,35.0,4.4,30.03,NW,315,0.0,9.0,27,0.00,,,0.00,Weather View 32 v70,2013-03-18 18:04:00,
2013-03-18 14:09:00,35.0,3.5,30.03,SE,135,3.0,9.0,26,0.00,,,0.00,Weather View 32 v70,2013-03-18 18:09:00,
2013-03-18 14:14:00,35.0,4.4,30.03,SE,135,5.0,9.0,27,0.00,,,0.00,Weather View 32 v70,2013-03-18 18:14:00,
2013-03-18 14:19:00,35.0,5.9,30.03,WNW,292,3.0,9.0,29,0.00,,,0.00,Weather View 32 v70,2013-03-18 18:19:00,
2013-03-18 14:24:00,36.0,4.4,30.02,SE,135,4.0,9.0,26,0.00,,,0.00,Weather View 32 v70,2013-03-18 18:24:00,
2013-03-18 14:29:00,36.0,3.6,30.02,WSW,247,7.0,9.0,25,0.00,,,0.00,Weather View 32 v70,2013-03-18 18:29:00,
2013-03-18 14:34:00,36.0,4.4,30.01,SE,135,6.0,9.0,26,0.00,,,0.00,Weather View 32 v70,2013-03-18 18:34:00,
2013-03-18 14:39:00,36.0,2.7,30.01,SE,135,0.0,9.0,24,0.00,,,0.00,Weather View 32 v70,2013-03-18 18:39:00,
2013-03-18 14:44:00,36.0,3.6,30.00,South,180,1.0,9.0,25,0.00,,,0.00,Weather View 32 v70,2013-03-18 18:44:00,
2013-03-18 14:49:00,36.0,2.7,30.00,NE,45,2.0,9.0,24,0.00,,,0.00,Weather View 32 v70,2013-03-18 18:49:00,
2013-03-18 14:54:00,36.0,5.2,30.00,East,90,1.0,9.0,27,0.00,,,0.00,Weather View 32 v70,2013-03-18 18:54:00,
2013-03-18 14:59:00,36.0,2.7,30.00,West,270,2.0,9.0,24,0.00,,,0.00,Weather View 32 v70,2013-03-18 18:59:00,
2013-03-18 15:04:00,36.0,2.7,29.99,SW,225,0.0,9.0,24,0.00,,,0.00,Weather View 32 v70,2013-03-18 19:04:00,
2013-03-18 15:09:00,36.0,2.7,29.99,SW,225,2.0,9.0,24,0.00,,,0.00,Weather View 32 v70,2013-03-18 19:09:00,
2013-03-18 15:14:00,37.0,4.4,29.99,West,270,7.0,9.0,25,0.00,,,0.00,Weather View 32 v70,2013-03-18 19:14:00,
2013-03-18 15:19:00,36.0,2.7,29.99,West,270,5.0,9.0,24,0.00,,,0.00,Weather View 32 v70,2013-03-18 19:19:00,
2013-03-18 15:24:00,36.0,3.6,29.99,West,270,5.0,9.0,25,0.00,,,0.00,Weather View 32 v70,2013-03-18 19:24:00,
2013-03-18 15:29:00,36.0,4.4,29.99,South,180,0.0,9.0,26,0.00,,,0.00,Weather View 32 v70,2013-03-18 19:29:00,
2013-03-18 15:34:00,36.0,2.7,29.99,WNW,292,5.0,11.0,24,0.00,,,0.00,Weather View 32 v70,2013-03-18 19:34:00,
2013-03-18 15:39:00,36.0,2.7,29.99,West,270,3.0,11.0,24,0.00,,,0.00,Weather View 32 v70,2013-03-18 19:39:00,
2013-03-18 15:44:00,35.0,1.8,29.98,West,270,4.0,11.0,24,0.00,,,0.00,Weather View 32 v70,2013-03-18 19:44:00,
2013-03-18 15:49:00,35.0,1.8,29.98,West,270,4.0,11.0,24,0.00,,,0.00,Weather View 32 v70,2013-03-18 19:49:00,
2013-03-18 15:54:00,36.0,3.6,29.98,NW,315,0.0,11.0,25,0.00,,,0.00,Weather View 32 v70,2013-03-18 19:54:00,
2013-03-18 15:59:00,36.0,2.7,29.98,West,270,5.0,11.0,24,0.00,,,0.00,Weather View 32 v70,2013-03-18 19:59:00,
2013-03-18 16:04:00,36.0,2.7,29.98,West,270,6.0,11.0,24,0.00,,,0.00,Weather View 32 v70,2013-03-18 20:04:00,
2013-03-18 16:09:00,36.0,2.7,29.98,West,270,4.0,11.0,24,0.00,,,0.00,Weather View 32 v70,2013-03-18 20:09:00,
2013-03-18 16:14:00,36.0,3.6,29.98,SE,135,5.0,11.0,25,0.00,,,0.00,Weather View 32 v70,2013-03-18 20:14:00,
2013-03-18 16:19:00,36.0,5.2,29.98,West,270,6.0,11.0,27,0.00,,,0.00,Weather View 32 v70,2013-03-18 20:19:00,
2013-03-18 16:24:00,36.0,3.6,29.98,SE,135,3.0,11.0,25,0.00,,,0.00,Weather View 32 v70,2013-03-18 20:24:00,
2013-03-18 16:29:00,36.0,4.4,29.98,SE,135,2.0,11.0,26,0.00,,,0.00,Weather View 32 v70,2013-03-18 20:29:00,
2013-03-18 16:34:00,36.0,5.2,29.97,West,270,3.0,9.0,27,0.00,,,0.00,Weather View 32 v70,2013-03-18 20:34:00,
2013-03-18 16:39:00,35.0,3.5,29.97,West,270,5.0,9.0,26,0.00,,,0.00,Weather View 32 v70,2013-03-18 20:39:00,
2013-03-18 16:44:00,35.0,3.5,29.96,West,270,3.0,9.0,26,0.00,,,0.00,Weather View 32 v70,2013-03-18 20:44:00,
2013-03-18 16:49:00,35.0,5.2,29.96,SE,135,2.0,9.0,28,0.00,,,0.00,Weather View 32 v70,2013-03-18 20:49:00,
2013-03-18 16:54:00,35.0,3.5,29.96,SE,135,0.0,9.0,26,0.00,,,0.00,Weather View 32 v70,2013-03-18 20:54:00,
2013-03-18 16:59:00,35.0,4.4,29.96,SE,135,0.0,9.0,27,0.00,,,0.00,Weather View 32 v70,2013-03-18 20:59:00,
2013-03-18 17:04:00,35.0,5.2,29.95,East,90,2.0,9.0,28,0.00,,,0.00,Weather View 32 v70,2013-03-18 21:04:00,
2013-03-18 17:09:00,35.0,5.2,29.95,South,180,3.0,9.0,28,0.00,,,0.00,Weather View 32 v70,2013-03-18 21:09:00,
2013-03-18 17:14:00,35.0,4.4,29.95,SE,135,1.0,9.0,27,0.00,,,0.00,Weather View 32 v70,2013-03-18 21:14:00,
2013-03-18 17:19:00,35.0,5.2,29.95,SE,135,1.0,9.0,28,0.00,,,0.00,Weather View 32 v70,2013-03-18 21:19:00,
2013-03-18 17:24:00,35.0,5.2,29.94,South,180,2.0,9.0,28,0.00,,,0.00,Weather View 32 v70,2013-03-18 21:24:00,
2013-03-18 17:29:00,35.0,4.4,29.94,SE,135,1.0,7.0,27,0.00,,,0.00,Weather View 32 v70,2013-03-18 21:29:00,
2013-03-18 17:34:00,35.0,4.4,29.94,South,180,1.0,7.0,27,0.00,,,0.00,Weather View 32 v70,2013-03-18 21:34:00,
2013-03-18 17:39:00,34.0,4.3,29.94,South,180,1.0,6.0,28,0.00,,,0.00,Weather View 32 v70,2013-03-18 21:39:00,
2013-03-18 17:44:00,34.0,3.5,29.94,South,180,2.0,6.0,27,0.00,,,0.00,Weather View 32 v70,2013-03-18 21:44:00,
2013-03-18 17:49:00,34.0,3.5,29.94,South,180,2.0,6.0,27,0.00,,,0.00,Weather View 32 v70,2013-03-18 21:49:00,
2013-03-18 17:54:00,34.0,3.5,29.94,SW,225,1.0,6.0,27,0.00,,,0.00,Weather View 32 v70,2013-03-18 21:54:00,
2013-03-18 17:59:00,34.0,4.3,29.94,SE,135,2.0,6.0,28,0.00,,,0.00,Weather View 32 v70,2013-03-18 21:59:00,
2013-03-18 18:04:00,34.0,4.3,29.94,SE,135,2.0,6.0,28,0.00,,,0.00,Weather View 32 v70,2013-03-18 22:04:00,
2013-03-18 18:09:00,34.0,3.5,29.94,South,180,1.0,6.0,27,0.00,,,0.00,Weather View 32 v70,2013-03-18 22:09:00,
2013-03-18 18:14:00,34.0,5.1,29.94,SE,135,1.0,6.0,29,0.00,,,0.00,Weather View 32 v70,2013-03-18 22:14:00,
2013-03-18 18:19:00,34.0,7.9,29.94,NW,315,4.0,6.0,33,0.00,,,0.00,Weather View 32 v70,2013-03-18 22:19:00,
2013-03-18 18:29:00,33.0,12.9,29.94,SW,225,2.0,7.0,43,0.00,,,0.00,Weather View 32 v70,2013-03-18 22:29:00,
2013-03-18 18:39:00,32.0,13.5,29.95,SE,135,0.0,7.0,46,0.00,,,0.00,Weather View 32 v70,2013-03-18 22:39:00,
2013-03-18 18:49:00,32.0,15.0,29.96,SE,135,5.0,7.0,49,0.00,,,0.00,Weather View 32 v70,2013-03-18 22:49:00,
2013-03-18 18:54:00,32.0,15.4,29.95,West,270,0.0,7.0,50,0.00,,,0.00,Weather View 32 v70,2013-03-18 22:54:00,
2013-03-18 18:59:00,31.0,15.9,29.95,SE,135,3.0,7.0,53,0.00,,,0.00,Weather View 32 v70,2013-03-18 22:59:00,
2013-03-18 19:04:00,31.0,16.3,29.96,SE,135,1.0,7.0,54,0.00,,,0.00,Weather View 32 v70,2013-03-18 23:04:00,
2013-03-18 19:14:00,31.0,18.3,29.96,SE,135,5.0,9.0,59,0.00,,,0.00,Weather View 32 v70,2013-03-18 23:14:00,
2013-03-18 19:19:00,30.0,18.2,29.96,SE,135,5.0,9.0,61,0.00,,,0.00,Weather View 32 v70,2013-03-18 23:19:00,
2013-03-18 19:24:00,30.0,18.6,29.96,South,180,3.0,9.0,62,0.00,,,0.00,Weather View 32 v70,2013-03-18 23:24:00,
2013-03-18 19:34:00,30.0,19.7,29.96,South,180,5.0,9.0,65,0.00,,,0.00,Weather View 32 v70,2013-03-18 23:34:00,
2013-03-18 19:39:00,30.0,19.7,29.96,SW,225,0.0,9.0,65,0.00,,,0.00,Weather View 32 v70,2013-03-18 23:39:00,
2013-03-18 19:49:00,29.0,19.4,29.95,South,180,2.0,9.0,67,0.00,,,0.00,Weather View 32 v70,2013-03-18 23:49:00,
2013-03-18 19:54:00,29.0,19.4,29.96,South,180,4.0,9.0,67,0.00,,,0.00,Weather View 32 v70,2013-03-18 23:54:00,
2013-03-18 19:59:00,29.0,19.8,29.96,South,180,2.0,9.0,68,0.00,,,0.00,Weather View 32 v70,2013-03-18 23:59:00,
2013-03-18 20:04:00,29.0,19.8,29.96,South,180,0.0,9.0,68,0.00,,,0.00,Weather View 32 v70,2013-03-19 00:04:00,
2013-03-18 20:14:00,29.0,20.1,29.95,SSE,157,0.0,9.0,69,0.00,,,0.00,Weather View 32 v70,2013-03-19 00:14:00,
2013-03-18 20:19:00,29.0,20.4,29.95,SSE,157,0.0,7.0,70,0.00,,,0.00,Weather View 32 v70,2013-03-19 00:19:00,
2013-03-18 20:24:00,29.0,20.4,29.95,WSW,247,1.0,7.0,70,0.00,,,0.00,Weather View 32 v70,2013-03-19 00:24:00,
2013-03-18 20:34:00,29.0,20.8,29.95,SSW,202,0.0,7.0,71,0.00,,,0.00,Weather View 32 v70,2013-03-19 00:34:00,
2013-03-18 20:39:00,29.0,20.8,29.95,South,180,0.0,7.0,71,0.00,,,0.00,Weather View 32 v70,2013-03-19 00:39:00,
2013-03-18 20:44:00,29.0,20.8,29.94,SW,225,3.0,7.0,71,0.00,,,0.00,Weather View 32 v70,2013-03-19 00:44:00,
2013-03-18 20:54:00,29.0,20.8,29.94,SE,135,0.0,7.0,71,0.00,,,0.00,Weather View 32 v70,2013-03-19 00:54:00,
2013-03-18 20:59:00,29.0,21.1,29.94,South,180,3.0,7.0,72,0.00,,,0.00,Weather View 32 v70,2013-03-19 00:59:00,
2013-03-18 21:04:00,29.0,21.1,29.94,NNE,22,0.0,7.0,72,0.00,,,0.00,Weather View 32 v70,2013-03-19 01:04:00,
2013-03-18 21:09:00,29.0,21.1,29.94,North,360,0.0,7.0,72,0.00,,,0.00,Weather View 32 v70,2013-03-19 01:09:00,
2013-03-18 21:19:00,29.0,20.8,29.94,South,180,0.0,6.0,71,0.00,,,0.00,Weather View 32 v70,2013-03-19 01:19:00,
2013-03-18 21:24:00,29.0,21.1,29.94,South,180,0.0,6.0,72,0.00,,,0.00,Weather View 32 v70,2013-03-19 01:24:00,
2013-03-18 21:29:00,29.0,20.8,29.94,SSE,157,0.0,6.0,71,0.00,,,0.00,Weather View 32 v70,2013-03-19 01:29:00,
2013-03-18 21:39:00,29.0,20.8,29.94,West,270,2.0,7.0,71,0.00,,,0.00,Weather View 32 v70,2013-03-19 01:39:00,
2013-03-18 21:44:00,29.0,20.8,29.94,NW,315,0.0,7.0,71,0.00,,,0.00,Weather View 32 v70,2013-03-19 01:44:00,
2013-03-18 21:49:00,29.0,20.8,29.94,South,180,0.0,7.0,71,0.00,,,0.00,Weather View 32 v70,2013-03-19 01:49:00,
2013-03-18 21:54:00,29.0,20.8,29.94,SSE,157,2.0,7.0,71,0.00,,,0.00,Weather View 32 v70,2013-03-19 01:54:00,
2013-03-18 22:04:00,29.0,20.4,29.93,South,180,3.0,7.0,70,0.00,,,0.00,Weather View 32 v70,2013-03-19 02:04:00,
2013-03-18 22:09:00,29.0,20.4,29.93,NW,315,0.0,7.0,70,0.00,,,0.00,Weather View 32 v70,2013-03-19 02:09:00,
2013-03-18 22:14:00,30.0,21.4,29.93,South,180,0.0,7.0,70,0.00,,,0.00,Weather View 32 v70,2013-03-19 02:14:00,
2013-03-18 22:24:00,30.0,21.1,29.93,South,180,1.0,7.0,69,0.00,,,0.00,Weather View 32 v70,2013-03-19 02:24:00,
2013-03-18 22:29:00,30.0,21.1,29.93,SE,135,1.0,7.0,69,0.00,,,0.00,Weather View 32 v70,2013-03-19 02:29:00,
2013-03-18 22:34:00,30.0,21.1,29.93,South,180,1.0,7.0,69,0.00,,,0.00,Weather View 32 v70,2013-03-19 02:34:00,
2013-03-18 22:44:00,30.0,21.1,29.93,SSE,157,3.0,6.0,69,0.00,,,0.00,Weather View 32 v70,2013-03-19 02:44:00,
2013-03-18 22:50:00,30.0,21.1,29.93,SE,135,0.0,6.0,69,0.00,,,0.00,Weather View 32 v70,2013-03-19 02:50:00,
2013-03-18 22:55:00,30.0,21.1,29.93,SW,225,3.0,7.0,69,0.00,,,0.00,Weather View 32 v70,2013-03-19 02:55:00,
2013-03-18 23:04:00,30.0,21.4,29.93,NW,315,2.0,7.0,70,0.00,,,0.00,Weather View 32 v70,2013-03-19 03:04:00,
2013-03-18 23:09:00,29.0,21.4,29.93,East,90,7.0,8.0,73,0.00,,,0.00,Weather View 32 v70,2013-03-19 03:09:00,
2013-03-18 23:14:00,29.0,22.7,29.94,West,270,1.0,9.0,77,0.00,,,0.00,Weather View 32 v70,2013-03-19 03:14:00,
2013-03-18 23:19:00,28.0,23.2,29.94,NW,315,5.0,9.0,82,0.00,,,0.00,Weather View 32 v70,2013-03-19 03:19:00,
2013-03-18 23:29:00,27.0,24.7,29.94,West,270,5.0,9.0,91,0.00,,,0.00,Weather View 32 v70,2013-03-19 03:29:00,
2013-03-18 23:34:00,27.0,25.5,29.95,West,270,5.0,9.0,94,0.00,,,0.00,Weather View 32 v70,2013-03-19 03:34:00,
2013-03-18 23:39:00,27.0,25.5,29.95,NW,315,3.0,9.0,94,0.00,,,0.00,Weather View 32 v70,2013-03-19 03:39:00,
2013-03-18 23:49:00,26.0,24.5,29.95,SE,135,1.0,9.0,94,0.00,,,0.00,Weather View 32 v70,2013-03-19 03:49:00,
2013-03-18 23:54:00,26.0,24.5,29.94,SE,135,2.0,9.0,94,0.00,,,0.00,Weather View 32 v70,2013-03-19 03:54:00,
2013-03-18 23:59:00,26.0,24.5,29.94,SE,135,2.0,9.0,94,0.00,,,0.00,Weather View 32 v70,2013-03-19 03:59:00,